Location: Altmatt
(47.1333°N, 8.7000°E)
Time: 17:55:40
(UTC+00:00)

Cosmos 371 Rocket - Pass Details

Date: 13 July 2020
Orbit: 684 x 698 km, 74.0° (Epoch: 13 August)

Event Time Altitude Azimuth Distance (km) Brightness Sun altitude
Rises 20:44:16 0° 343° (NNW) 3,081 8.0 -11.6°
Reaches altitude 10° 20:46:46 10° 352° (N) 2,158 6.8 -11.9°
Maximum altitude 20:51:14 36° 59° (ENE) 1,101 4.3 -12.4°
Enters shadow 20:54:34 16° 119° (ESE) 1,765 4.8 -12.7°
